SIA865 VHHH-WSSS

Flight info

Callsign SIA865
Flight time 3h 8m
Altitude 35000
Route PECAN V12 EPDOS L642 EPKAL/K0896F360 L642 ESPOB/N0481F360 Q801 ESBUM Q802 ELALO ELALO1B
Aircraft B77W/H-SDE1E2E3FGHIJ2J3J4J5M1RWXY/LB1D1

Departure

Time 2026-05-06 09:08
Airport Hong Kong International Airport (VHHH)

Arrival

Time 2026-05-06 12:16
Airport Singapore Changi Airport (WSSS)
Time Latitude Longitude Altitude Speed Heading
2026-05-06 08:21 22.31111 113.92734 36 ft 0 kts 289°
2026-05-06 08:49 22.31105 113.92751 36 ft 4 kts 288°
2026-05-06 08:49 22.31098 113.92778 35 ft 4 kts 284°
2026-05-06 08:50 22.31091 113.92807 33 ft 4 kts 281°
2026-05-06 08:50 22.31089 113.92821 33 ft 0 kts 282°
2026-05-06 08:53 22.31089 113.92820 33 ft 0 kts 282°
2026-05-06 08:53 22.31089 113.92807 33 ft 4 kts 265°
2026-05-06 08:53 22.31073 113.92782 34 ft 4 kts 218°
2026-05-06 08:53 22.31044 113.92778 36 ft 4 kts 166°
2026-05-06 08:54 22.31014 113.92791 36 ft 5 kts 162°
2026-05-06 08:54 22.30981 113.92789 36 ft 5 kts 197°
2026-05-06 08:54 22.30949 113.92776 36 ft 5 kts 201°
2026-05-06 08:54 22.30915 113.92765 36 ft 5 kts 198°
2026-05-06 08:55 22.30884 113.92746 36 ft 5 kts 213°
2026-05-06 08:55 22.30854 113.92724 36 ft 5 kts 218°
2026-05-06 08:55 22.30832 113.92689 36 ft 6 kts 245°
2026-05-06 08:55 22.30812 113.92632 36 ft 10 kts 250°
2026-05-06 08:56 22.30795 113.92582 36 ft 12 kts 251°
2026-05-06 08:56 22.30767 113.92494 36 ft 13 kts 251°
2026-05-06 08:56 22.30730 113.92375 36 ft 13 kts 251°
2026-05-06 08:56 22.30701 113.92287 36 ft 13 kts 249°
2026-05-06 08:57 22.30680 113.92227 36 ft 13 kts 250°
2026-05-06 08:57 22.30651 113.92138 36 ft 13 kts 251°
2026-05-06 08:57 22.30623 113.92049 36 ft 13 kts 250°
2026-05-06 08:57 22.30594 113.91960 36 ft 13 kts 251°
2026-05-06 08:58 22.30566 113.91871 36 ft 13 kts 251°
2026-05-06 08:58 22.30537 113.91783 36 ft 13 kts 250°
2026-05-06 08:58 22.30508 113.91693 35 ft 13 kts 251°
2026-05-06 08:58 22.30479 113.91604 35 ft 13 kts 250°
2026-05-06 08:59 22.30450 113.91516 35 ft 13 kts 251°
2026-05-06 08:59 22.30422 113.91427 35 ft 13 kts 251°
2026-05-06 08:59 22.30393 113.91338 35 ft 13 kts 251°
2026-05-06 08:59 22.30366 113.91250 35 ft 13 kts 252°
2026-05-06 09:00 22.30339 113.91160 35 ft 13 kts 252°
2026-05-06 09:00 22.30310 113.91070 35 ft 13 kts 251°
2026-05-06 09:00 22.30282 113.90982 35 ft 13 kts 251°
2026-05-06 09:00 22.30254 113.90893 35 ft 13 kts 251°
2026-05-06 09:01 22.30225 113.90804 35 ft 13 kts 250°
2026-05-06 09:01 22.30196 113.90715 35 ft 13 kts 251°
2026-05-06 09:01 22.30168 113.90626 35 ft 13 kts 251°
2026-05-06 09:01 22.30139 113.90537 35 ft 13 kts 250°
2026-05-06 09:02 22.30111 113.90448 35 ft 13 kts 251°
2026-05-06 09:02 22.30082 113.90359 35 ft 13 kts 251°
2026-05-06 09:02 22.30053 113.90271 35 ft 13 kts 251°
2026-05-06 09:02 22.30025 113.90182 35 ft 13 kts 251°
2026-05-06 09:03 22.29996 113.90093 35 ft 13 kts 251°
2026-05-06 09:03 22.29968 113.90006 35 ft 12 kts 251°
2026-05-06 09:03 22.29942 113.89924 35 ft 12 kts 251°
2026-05-06 09:03 22.29916 113.89844 35 ft 11 kts 251°
2026-05-06 09:04 22.29895 113.89778 35 ft 8 kts 249°
2026-05-06 09:04 22.29858 113.89739 35 ft 8 kts 197°
2026-05-06 09:04 22.29803 113.89743 35 ft 8 kts 166°
2026-05-06 09:04 22.29751 113.89764 35 ft 6 kts 159°
2026-05-06 09:05 22.29748 113.89765 35 ft 0 kts 159°
2026-05-06 09:06 22.29720 113.89776 35 ft 6 kts 159°
2026-05-06 09:06 22.29683 113.89796 35 ft 6 kts 146°
2026-05-06 09:06 22.29656 113.89831 35 ft 6 kts 116°
2026-05-06 09:07 22.29651 113.89877 35 ft 6 kts 83°
2026-05-06 09:07 22.29659 113.89912 35 ft 0 kts 74°
2026-05-06 09:07 22.29662 113.89925 35 ft 17 kts 73°
2026-05-06 09:07 22.29799 113.90354 32 ft 101 kts 70°
2026-05-06 09:08 22.30115 113.91320 37 ft 168 kts 71°
2026-05-06 09:08 22.30513 113.92616 477 ft 185 kts 70°
2026-05-06 09:08 22.30910 113.93927 1262 ft 188 kts 72°
2026-05-06 09:08 22.31344 113.95241 2040 ft 190 kts 73°
2026-05-06 09:09 22.31816 113.96681 2332 ft 218 kts 73°
2026-05-06 09:09 22.32357 113.98342 2565 ft 249 kts 72°
2026-05-06 09:09 22.32948 114.00153 3177 ft 262 kts 72°
2026-05-06 09:09 22.33563 114.02060 3864 ft 272 kts 72°
2026-05-06 09:10 22.33921 114.04080 4438 ft 280 kts 96°
2026-05-06 09:10 22.33391 114.06078 5272 ft 278 kts 122°
2026-05-06 09:10 22.32144 114.07647 6081 ft 277 kts 146°
2026-05-06 09:10 22.30414 114.08529 6823 ft 277 kts 169°
2026-05-06 09:11 22.28502 114.08723 7587 ft 276 kts 182°
2026-05-06 09:11 22.26563 114.08727 8314 ft 281 kts 182°
2026-05-06 09:11 22.24593 114.08721 9086 ft 285 kts 183°
2026-05-06 09:11 22.22599 114.08690 9878 ft 288 kts 184°
2026-05-06 09:12 22.20570 114.08660 10493 ft 298 kts 184°
2026-05-06 09:12 22.18416 114.08680 10658 ft 321 kts 176°
2026-05-06 09:12 22.16216 114.09501 10812 ft 354 kts 148°
2026-05-06 09:12 22.14439 114.11477 11000 ft 383 kts 122°
2026-05-06 09:13 22.13243 114.14103 11447 ft 397 kts 115°
2026-05-06 09:13 22.12090 114.16853 12094 ft 406 kts 116°
2026-05-06 09:13 22.10855 114.19612 12961 ft 411 kts 117°
2026-05-06 09:13 22.09555 114.22380 13796 ft 416 kts 118°
2026-05-06 09:14 22.08198 114.25144 14458 ft 418 kts 123°
2026-05-06 09:14 22.06309 114.27533 15013 ft 421 kts 144°
2026-05-06 09:14 22.03906 114.29298 15611 ft 421 kts 149°
2026-05-06 09:14 22.01477 114.31100 16304 ft 424 kts 148°
2026-05-06 09:15 21.98889 114.32573 16891 ft 424 kts 166°
2026-05-06 09:15 21.95981 114.32969 17643 ft 421 kts 186°
2026-05-06 09:15 21.93125 114.32384 18423 ft 418 kts 200°
2026-05-06 09:15 21.90504 114.31064 19072 ft 416 kts 216°
2026-05-06 09:16 21.88199 114.29177 19565 ft 419 kts 221°
2026-05-06 09:16 21.85929 114.27181 20099 ft 424 kts 221°
2026-05-06 09:16 21.83638 114.25154 20706 ft 427 kts 221°
2026-05-06 09:16 21.81322 114.23127 21369 ft 429 kts 221°
2026-05-06 09:17 21.78986 114.21110 21989 ft 433 kts 221°
2026-05-06 09:17 21.76618 114.19085 22563 ft 437 kts 221°
2026-05-06 09:17 21.74223 114.17048 23121 ft 441 kts 221°
2026-05-06 09:17 21.71802 114.14993 23646 ft 445 kts 221°
2026-05-06 09:18 21.69366 114.12926 24113 ft 448 kts 221°
2026-05-06 09:18 21.66916 114.10847 24589 ft 451 kts 221°
2026-05-06 09:18 21.64336 114.08921 24947 ft 457 kts 211°
2026-05-06 09:18 21.61349 114.07792 25282 ft 465 kts 195°
2026-05-06 09:19 21.58152 114.07088 25623 ft 471 kts 195°
2026-05-06 09:19 21.54941 114.06339 26055 ft 474 kts 196°
2026-05-06 09:19 21.51723 114.05534 26502 ft 476 kts 197°
2026-05-06 09:19 21.48497 114.04698 26949 ft 478 kts 197°
2026-05-06 09:20 21.45251 114.03852 27367 ft 482 kts 197°
2026-05-06 09:20 21.41955 114.03133 27739 ft 487 kts 191°
2026-05-06 09:20 21.38558 114.02780 28093 ft 494 kts 187°
2026-05-06 09:20 21.35106 114.02618 28491 ft 497 kts 185°
2026-05-06 09:21 21.31638 114.02505 28891 ft 499 kts 185°
2026-05-06 09:21 21.28160 114.02369 29251 ft 501 kts 186°
2026-05-06 09:21 21.24670 114.02189 29599 ft 503 kts 186°
2026-05-06 09:21 21.21167 114.01972 29927 ft 506 kts 187°
2026-05-06 09:22 21.17653 114.01734 30291 ft 506 kts 187°
2026-05-06 09:22 21.14142 114.01489 30707 ft 505 kts 187°
2026-05-06 09:22 21.10641 114.01245 31172 ft 504 kts 187°
2026-05-06 09:22 21.07142 114.01004 31595 ft 502 kts 187°
2026-05-06 09:23 21.03658 114.00767 31998 ft 502 kts 187°
2026-05-06 09:23 21.00173 114.00531 32383 ft 502 kts 187°
2026-05-06 09:23 20.96689 114.00296 32774 ft 501 kts 187°
2026-05-06 09:23 20.93226 113.99962 33212 ft 498 kts 192°
2026-05-06 09:24 20.89840 113.99293 33612 ft 493 kts 196°
2026-05-06 09:24 20.86489 113.98495 33987 ft 493 kts 197°
2026-05-06 09:24 20.83146 113.97685 34319 ft 492 kts 197°
2026-05-06 09:24 20.79806 113.96878 34635 ft 492 kts 197°
2026-05-06 09:25 20.76456 113.96077 34856 ft 495 kts 197°
2026-05-06 09:25 20.69684 113.94483 34914 ft 499 kts 196°
2026-05-06 09:26 20.62924 113.92916 34909 ft 496 kts 196°
2026-05-06 09:26 20.56185 113.91357 34913 ft 495 kts 196°
2026-05-06 09:27 20.49464 113.89800 34916 ft 494 kts 196°
2026-05-06 09:27 20.42780 113.88252 34919 ft 495 kts 196°
2026-05-06 09:28 20.36033 113.86690 34917 ft 496 kts 196°
2026-05-06 09:28 20.29285 113.85130 34922 ft 496 kts 196°
2026-05-06 09:29 20.22524 113.83568 34916 ft 498 kts 196°
2026-05-06 09:29 20.15753 113.82006 34914 ft 498 kts 196°
2026-05-06 09:30 20.08988 113.80446 34943 ft 497 kts 196°
2026-05-06 09:30 20.02217 113.78886 34920 ft 498 kts 197°
2026-05-06 09:31 19.95447 113.77328 34913 ft 498 kts 197°
2026-05-06 09:31 19.88669 113.75769 34914 ft 498 kts 197°
2026-05-06 09:32 19.81897 113.74214 34905 ft 498 kts 197°
2026-05-06 09:32 19.75119 113.72657 34899 ft 498 kts 197°
2026-05-06 09:33 19.68344 113.71103 34909 ft 499 kts 197°
2026-05-06 09:33 19.61593 113.69556 34905 ft 499 kts 196°
2026-05-06 09:34 19.54796 113.68000 34907 ft 500 kts 196°
2026-05-06 09:34 19.47997 113.66444 34898 ft 500 kts 196°
2026-05-06 09:35 19.41188 113.64888 34907 ft 500 kts 196°
2026-05-06 09:35 19.34375 113.63332 34907 ft 501 kts 196°
2026-05-06 09:36 19.27562 113.61777 34904 ft 501 kts 196°
2026-05-06 09:36 19.20736 113.60221 34901 ft 501 kts 196°
2026-05-06 09:37 19.13920 113.58668 34894 ft 501 kts 196°
2026-05-06 09:37 19.07101 113.57116 34906 ft 501 kts 196°
2026-05-06 09:38 19.00287 113.55573 34904 ft 501 kts 195°
2026-05-06 09:38 18.94534 113.54653 34905 ft 503 kts 191°
2026-05-06 09:39 18.86447 113.53554 34895 ft 504 kts 191°
2026-05-06 09:39 18.79499 113.52585 34912 ft 504 kts 191°
2026-05-06 09:40 18.73678 113.51756 34897 ft 504 kts 191°
2026-05-06 09:40 18.63256 113.50272 34897 ft 504 kts 191°
2026-05-06 09:41 18.56477 113.48666 34898 ft 496 kts 205°
2026-05-06 09:41 18.50428 113.45316 34891 ft 488 kts 219°
2026-05-06 09:42 18.44988 113.41050 34900 ft 488 kts 220°
2026-05-06 09:42 18.39542 113.36766 34895 ft 489 kts 220°
2026-05-06 09:43 18.34094 113.32542 34898 ft 490 kts 220°
2026-05-06 09:43 18.28589 113.28308 34886 ft 491 kts 219°
2026-05-06 09:44 18.23063 113.24065 34895 ft 491 kts 219°
2026-05-06 09:44 18.17545 113.19827 34895 ft 491 kts 219°
2026-05-06 09:45 18.12024 113.15589 34896 ft 491 kts 219°
2026-05-06 09:45 18.06500 113.11352 34898 ft 491 kts 219°
2026-05-06 09:46 18.00976 113.07118 34893 ft 491 kts 220°
2026-05-06 09:46 17.95454 113.02889 34895 ft 491 kts 220°
2026-05-06 09:47 17.89927 112.98658 34895 ft 491 kts 220°
2026-05-06 09:47 17.84401 112.94425 34896 ft 492 kts 220°
2026-05-06 09:48 17.78921 112.90126 34890 ft 492 kts 220°
2026-05-06 09:48 17.73460 112.85805 34891 ft 492 kts 220°
2026-05-06 09:49 17.67989 112.81490 34889 ft 492 kts 220°
2026-05-06 09:49 17.62514 112.77188 34890 ft 492 kts 220°
2026-05-06 09:50 17.57031 112.72884 34894 ft 492 kts 220°
2026-05-06 09:50 17.51544 112.68580 34894 ft 493 kts 220°
2026-05-06 09:51 17.46083 112.64299 34891 ft 493 kts 220°
2026-05-06 09:51 17.40584 112.59992 34893 ft 494 kts 220°
2026-05-06 09:52 17.35083 112.55686 34893 ft 494 kts 220°
2026-05-06 09:52 17.29573 112.51377 34894 ft 494 kts 220°
2026-05-06 09:53 17.24058 112.47067 34897 ft 494 kts 220°
2026-05-06 09:53 17.18553 112.42769 34897 ft 494 kts 220°
2026-05-06 09:54 17.13053 112.38476 34884 ft 493 kts 220°
2026-05-06 09:54 17.07557 112.34190 34885 ft 493 kts 221°
2026-05-06 09:55 17.02064 112.29909 34895 ft 493 kts 221°
2026-05-06 09:55 16.96548 112.25648 34894 ft 493 kts 220°
2026-05-06 09:56 16.90988 112.21445 34897 ft 494 kts 220°
2026-05-06 09:56 16.85418 112.17245 34893 ft 494 kts 220°
2026-05-06 09:57 16.79852 112.13038 34891 ft 494 kts 220°
2026-05-06 09:57 16.74290 112.08830 34895 ft 494 kts 220°
2026-05-06 09:58 16.68723 112.04620 34893 ft 494 kts 220°
2026-05-06 09:58 16.63190 112.00439 34890 ft 494 kts 220°
2026-05-06 09:59 16.57624 111.96237 34890 ft 494 kts 220°
2026-05-06 09:59 16.52062 111.92040 34884 ft 494 kts 219°
2026-05-06 10:00 16.46497 111.87845 34891 ft 494 kts 219°
2026-05-06 10:00 16.40928 111.83650 34894 ft 494 kts 219°
2026-05-06 10:01 16.35362 111.79460 34897 ft 494 kts 219°
2026-05-06 10:01 16.29792 111.75270 34891 ft 493 kts 219°
2026-05-06 10:02 16.24235 111.71093 34883 ft 492 kts 219°
2026-05-06 10:02 16.18687 111.66925 34877 ft 492 kts 218°
2026-05-06 10:03 16.13140 111.62761 34886 ft 492 kts 218°
2026-05-06 10:03 16.07590 111.58598 34886 ft 492 kts 218°
2026-05-06 10:04 16.02031 111.54431 34886 ft 493 kts 218°
2026-05-06 10:04 15.96468 111.50264 34885 ft 493 kts 218°
2026-05-06 10:05 15.90899 111.46094 34884 ft 493 kts 218°
2026-05-06 10:05 15.85332 111.41930 34889 ft 493 kts 218°
2026-05-06 10:06 15.79768 111.37772 34884 ft 493 kts 218°
2026-05-06 10:06 15.74203 111.33615 34883 ft 492 kts 218°
2026-05-06 10:07 15.68641 111.29462 34885 ft 492 kts 218°
2026-05-06 10:07 15.63082 111.25315 34885 ft 492 kts 218°
2026-05-06 10:08 15.57540 111.21183 34887 ft 489 kts 218°
2026-05-06 10:08 15.52025 111.17079 34873 ft 486 kts 218°
2026-05-06 10:09 15.46583 111.13026 34878 ft 484 kts 218°
2026-05-06 10:09 15.41087 111.08934 34882 ft 483 kts 218°
2026-05-06 10:10 15.35631 111.04876 34886 ft 483 kts 218°
2026-05-06 10:10 15.30196 111.00772 34879 ft 484 kts 219°
2026-05-06 10:11 15.24773 110.96634 34888 ft 485 kts 219°
2026-05-06 10:11 15.19330 110.92486 34886 ft 487 kts 219°
2026-05-06 10:12 15.13902 110.88361 34883 ft 488 kts 219°
2026-05-06 10:12 15.08393 110.84182 34883 ft 488 kts 219°
2026-05-06 10:13 15.02911 110.80026 34881 ft 488 kts 219°
2026-05-06 10:13 14.97427 110.75870 34881 ft 489 kts 219°
2026-05-06 10:14 14.91942 110.71717 34885 ft 489 kts 219°
2026-05-06 10:14 14.86452 110.67562 34885 ft 489 kts 219°
2026-05-06 10:15 14.80993 110.63433 34885 ft 489 kts 219°
2026-05-06 10:15 14.75501 110.59282 34885 ft 489 kts 219°
2026-05-06 10:16 14.70009 110.55133 34884 ft 489 kts 219°
2026-05-06 10:16 14.64516 110.50986 34882 ft 489 kts 218°
2026-05-06 10:17 14.59019 110.46840 34886 ft 489 kts 218°
2026-05-06 10:17 14.53516 110.42691 34885 ft 490 kts 218°
2026-05-06 10:18 14.48000 110.38535 34886 ft 491 kts 218°
2026-05-06 10:18 14.42482 110.34379 34883 ft 491 kts 218°
2026-05-06 10:19 14.36957 110.30222 34886 ft 492 kts 218°
2026-05-06 10:19 14.31426 110.26062 34885 ft 492 kts 218°
2026-05-06 10:20 14.25896 110.21906 34881 ft 492 kts 218°
2026-05-06 10:20 14.20367 110.17753 34882 ft 492 kts 218°
2026-05-06 10:21 14.14836 110.13600 34884 ft 491 kts 218°
2026-05-06 10:21 14.10245 110.10156 34882 ft 491 kts 218°
2026-05-06 10:22 14.03815 110.05333 34878 ft 492 kts 218°
2026-05-06 10:22 13.99213 110.01884 34881 ft 492 kts 218°
2026-05-06 10:23 13.93565 109.97905 34885 ft 493 kts 214°
2026-05-06 10:23 13.87733 109.94176 34888 ft 493 kts 213°
2026-05-06 10:24 13.81891 109.90464 34887 ft 494 kts 213°
2026-05-06 10:24 13.76055 109.86732 34884 ft 494 kts 213°
2026-05-06 10:25 13.70226 109.82988 34881 ft 494 kts 213°
2026-05-06 10:25 13.64389 109.79239 34891 ft 494 kts 213°
2026-05-06 10:26 13.58558 109.75497 34886 ft 494 kts 213°
2026-05-06 10:26 13.52728 109.71759 34883 ft 494 kts 213°
2026-05-06 10:27 13.46905 109.68028 34880 ft 493 kts 213°
2026-05-06 10:27 13.41081 109.64298 34877 ft 493 kts 213°
2026-05-06 10:28 13.35263 109.60575 34880 ft 493 kts 213°
2026-05-06 10:28 13.29444 109.56852 34887 ft 493 kts 213°
2026-05-06 10:29 13.23625 109.53132 34885 ft 493 kts 213°
2026-05-06 10:29 13.17803 109.49412 34886 ft 493 kts 213°
2026-05-06 10:30 13.11978 109.45692 34892 ft 493 kts 213°
2026-05-06 10:30 13.06187 109.41996 34885 ft 494 kts 213°
2026-05-06 10:31 13.00351 109.38273 34897 ft 494 kts 213°
2026-05-06 10:31 12.94509 109.34548 34894 ft 495 kts 213°
2026-05-06 10:32 12.88654 109.30818 34893 ft 496 kts 213°
2026-05-06 10:32 12.82795 109.27087 34895 ft 496 kts 213°
2026-05-06 10:33 12.76935 109.23357 34894 ft 496 kts 213°
2026-05-06 10:33 12.71077 109.19627 34897 ft 496 kts 213°
2026-05-06 10:34 12.65199 109.15894 34903 ft 497 kts 213°
2026-05-06 10:34 12.59318 109.12160 34895 ft 498 kts 213°
2026-05-06 10:35 12.53425 109.08415 34908 ft 498 kts 213°
2026-05-06 10:35 12.47539 109.04683 34901 ft 498 kts 213°
2026-05-06 10:36 12.41649 109.00951 34901 ft 497 kts 213°
2026-05-06 10:36 12.35755 108.97212 34924 ft 499 kts 213°
2026-05-06 10:37 12.29855 108.93471 34918 ft 500 kts 213°
2026-05-06 10:37 12.23944 108.89727 34927 ft 500 kts 213°
2026-05-06 10:38 12.18015 108.85975 34925 ft 501 kts 213°
2026-05-06 10:38 12.12119 108.82244 34936 ft 502 kts 213°
2026-05-06 10:39 12.06142 108.78465 34928 ft 502 kts 213°
2026-05-06 10:39 12.00245 108.74734 34930 ft 500 kts 212°
2026-05-06 10:40 11.94329 108.71004 34918 ft 499 kts 212°
2026-05-06 10:40 11.88389 108.67251 34930 ft 498 kts 212°
2026-05-06 10:41 11.82531 108.63554 34914 ft 498 kts 212°
2026-05-06 10:41 11.76641 108.59842 34915 ft 498 kts 212°
2026-05-06 10:42 11.70739 108.56125 34905 ft 499 kts 212°
2026-05-06 10:42 11.64819 108.52403 34903 ft 501 kts 212°
2026-05-06 10:43 11.58879 108.48666 34902 ft 502 kts 212°
2026-05-06 10:44 11.49945 108.43045 34877 ft 503 kts 212°
2026-05-06 10:44 11.43997 108.39305 34865 ft 501 kts 211°
2026-05-06 10:45 11.38083 108.35591 34861 ft 497 kts 211°
2026-05-06 10:45 11.32215 108.31907 34875 ft 493 kts 211°
2026-05-06 10:46 11.26389 108.28250 34857 ft 491 kts 211°
2026-05-06 10:46 11.20580 108.24606 34841 ft 490 kts 211°
2026-05-06 10:47 11.14776 108.20967 34847 ft 490 kts 211°
2026-05-06 10:47 11.08961 108.17323 34838 ft 491 kts 211°
2026-05-06 10:48 11.03138 108.13674 34844 ft 492 kts 211°
2026-05-06 10:48 10.97299 108.10018 34829 ft 493 kts 211°
2026-05-06 10:49 10.91488 108.06370 34844 ft 494 kts 211°
2026-05-06 10:49 10.85713 108.02562 34844 ft 495 kts 213°
2026-05-06 10:50 10.79962 107.98705 34825 ft 495 kts 212°
2026-05-06 10:50 10.74206 107.94870 34857 ft 494 kts 212°
2026-05-06 10:51 10.68447 107.91054 34840 ft 493 kts 212°
2026-05-06 10:51 10.62709 107.87256 34850 ft 491 kts 212°
2026-05-06 10:52 10.56990 107.83470 34849 ft 490 kts 212°
2026-05-06 10:52 10.51275 107.79688 34834 ft 490 kts 212°
2026-05-06 10:53 10.45564 107.75910 34851 ft 490 kts 212°
2026-05-06 10:53 10.39854 107.72127 34831 ft 490 kts 212°
2026-05-06 10:54 10.34135 107.68337 34851 ft 491 kts 212°
2026-05-06 10:54 10.28402 107.64539 34833 ft 492 kts 212°
2026-05-06 10:55 10.22664 107.60737 34853 ft 493 kts 212°
2026-05-06 10:55 10.16918 107.56931 34851 ft 493 kts 212°
2026-05-06 10:56 10.11165 107.53127 34835 ft 494 kts 212°
2026-05-06 10:56 10.05406 107.49330 34854 ft 494 kts 212°
2026-05-06 10:57 9.99677 107.45555 34853 ft 494 kts 212°
2026-05-06 10:57 9.93913 107.41756 34841 ft 494 kts 212°
2026-05-06 10:58 9.88150 107.37959 34848 ft 494 kts 212°
2026-05-06 10:58 9.82381 107.34160 34849 ft 494 kts 212°
2026-05-06 10:59 9.76616 107.30364 34861 ft 494 kts 212°
2026-05-06 10:59 9.70852 107.26568 34859 ft 494 kts 212°
2026-05-06 11:00 9.65074 107.22770 34856 ft 495 kts 212°
2026-05-06 11:00 9.59294 107.18973 34863 ft 495 kts 212°
2026-05-06 11:01 9.53510 107.15171 34844 ft 496 kts 212°
2026-05-06 11:01 9.47719 107.11364 34857 ft 496 kts 212°
2026-05-06 11:02 9.41926 107.07559 34858 ft 496 kts 212°
2026-05-06 11:02 9.36132 107.03751 34844 ft 497 kts 212°
2026-05-06 11:03 9.30332 106.99948 34842 ft 497 kts 211°
2026-05-06 11:03 9.24521 106.96145 34840 ft 497 kts 212°
2026-05-06 11:04 9.18715 106.92335 34856 ft 498 kts 212°
2026-05-06 11:04 9.12942 106.88548 34856 ft 498 kts 211°
2026-05-06 11:05 9.07124 106.84735 34845 ft 498 kts 212°
2026-05-06 11:05 9.01304 106.80924 34853 ft 498 kts 212°
2026-05-06 11:06 8.96464 106.77755 34850 ft 499 kts 211°
2026-05-06 11:06 8.90634 106.73939 34848 ft 499 kts 211°
2026-05-06 11:07 8.84799 106.70122 34849 ft 499 kts 211°
2026-05-06 11:07 8.78959 106.66301 34840 ft 500 kts 212°
2026-05-06 11:08 8.73110 106.62479 34851 ft 501 kts 211°
2026-05-06 11:08 8.67254 106.58783 34832 ft 488 kts 210°
2026-05-06 11:09 8.61419 106.55201 34854 ft 495 kts 210°
2026-05-06 11:09 8.55495 106.51555 34836 ft 499 kts 210°
2026-05-06 11:10 8.49577 106.47888 34850 ft 499 kts 211°
2026-05-06 11:10 8.43670 106.44220 34836 ft 498 kts 211°
2026-05-06 11:11 8.37769 106.40560 34833 ft 497 kts 210°
2026-05-06 11:11 8.31871 106.36901 34846 ft 498 kts 210°
2026-05-06 11:12 8.25956 106.33240 34850 ft 499 kts 210°
2026-05-06 11:12 8.20027 106.29570 34845 ft 500 kts 210°
2026-05-06 11:13 8.14130 106.25921 34848 ft 501 kts 210°
2026-05-06 11:13 8.08183 106.22239 34846 ft 501 kts 210°
2026-05-06 11:14 8.02235 106.18558 34846 ft 502 kts 210°
2026-05-06 11:14 7.96288 106.14881 34847 ft 501 kts 211°
2026-05-06 11:15 7.90340 106.11203 34846 ft 501 kts 210°
2026-05-06 11:15 7.84392 106.07528 34843 ft 501 kts 210°
2026-05-06 11:16 7.78446 106.03855 34841 ft 501 kts 211°
2026-05-06 11:16 7.72508 106.00187 34841 ft 500 kts 210°
2026-05-06 11:17 7.66570 105.96519 34843 ft 500 kts 210°
2026-05-06 11:17 7.60633 105.92858 34846 ft 500 kts 211°
2026-05-06 11:18 7.54707 105.89203 34844 ft 499 kts 210°
2026-05-06 11:18 7.48820 105.85571 34843 ft 499 kts 210°
2026-05-06 11:19 7.42884 105.81911 34846 ft 499 kts 210°
2026-05-06 11:19 7.36958 105.78257 34846 ft 499 kts 210°
2026-05-06 11:20 7.31033 105.74607 34842 ft 499 kts 210°
2026-05-06 11:20 7.25095 105.70947 34840 ft 501 kts 211°
2026-05-06 11:21 7.19140 105.67283 34838 ft 502 kts 210°
2026-05-06 11:21 7.13174 105.63613 34838 ft 503 kts 211°
2026-05-06 11:22 7.07207 105.59937 34839 ft 503 kts 211°
2026-05-06 11:22 7.01239 105.56264 34837 ft 503 kts 210°
2026-05-06 11:23 6.95091 105.52918 34853 ft 502 kts 206°
2026-05-06 11:23 6.88840 105.49781 34839 ft 501 kts 205°
2026-05-06 11:24 6.82608 105.46649 34835 ft 500 kts 205°
2026-05-06 11:24 6.76393 105.43497 34830 ft 500 kts 206°
2026-05-06 11:25 6.70183 105.40338 34832 ft 499 kts 206°
2026-05-06 11:25 6.63983 105.37184 34840 ft 499 kts 206°
2026-05-06 11:26 6.57780 105.34031 34836 ft 499 kts 206°
2026-05-06 11:26 6.51581 105.30881 34837 ft 499 kts 206°
2026-05-06 11:27 6.45383 105.27733 34834 ft 499 kts 206°
2026-05-06 11:27 6.39196 105.24586 34824 ft 498 kts 206°
2026-05-06 11:28 6.33016 105.21455 34828 ft 497 kts 206°
2026-05-06 11:28 6.26882 105.18347 34832 ft 497 kts 206°
2026-05-06 11:29 6.20709 105.15212 34833 ft 496 kts 206°
2026-05-06 11:29 6.14547 105.12084 34831 ft 496 kts 206°
2026-05-06 11:30 6.08391 105.08961 34833 ft 496 kts 206°
2026-05-06 11:30 6.02238 105.05842 34831 ft 495 kts 206°
2026-05-06 11:31 5.96080 105.02720 34834 ft 495 kts 206°
2026-05-06 11:31 5.89923 104.99601 34829 ft 496 kts 206°
2026-05-06 11:32 5.83767 104.96482 34835 ft 496 kts 206°
2026-05-06 11:32 5.77610 104.93363 34836 ft 496 kts 206°
2026-05-06 11:33 5.71454 104.90246 34825 ft 496 kts 206°
2026-05-06 11:33 5.65296 104.87129 34831 ft 495 kts 206°
2026-05-06 11:34 5.59142 104.84014 34832 ft 496 kts 206°
2026-05-06 11:34 5.52979 104.80896 34832 ft 496 kts 206°
2026-05-06 11:35 5.46821 104.77781 34832 ft 496 kts 206°
2026-05-06 11:35 5.40663 104.74666 34833 ft 496 kts 206°
2026-05-06 11:36 5.34501 104.71550 34831 ft 496 kts 206°
2026-05-06 11:36 5.28380 104.68456 34835 ft 496 kts 206°
2026-05-06 11:37 5.22222 104.65343 34832 ft 495 kts 206°
2026-05-06 11:37 5.16068 104.62234 34832 ft 496 kts 206°
2026-05-06 11:38 5.09906 104.59120 34838 ft 496 kts 206°
2026-05-06 11:38 5.03750 104.56010 34832 ft 496 kts 206°
2026-05-06 11:39 4.97584 104.52896 34833 ft 496 kts 206°
2026-05-06 11:39 4.91419 104.49802 34825 ft 494 kts 203°
2026-05-06 11:39 4.88181 104.48657 34824 ft 493 kts 192°
2026-05-06 11:40 4.84807 104.48099 34845 ft 492 kts 184°
2026-05-06 11:40 4.78005 104.48460 34846 ft 490 kts 172°
2026-05-06 11:41 4.71243 104.49415 34826 ft 491 kts 171°
2026-05-06 11:41 4.64463 104.50331 34839 ft 492 kts 172°
2026-05-06 11:42 4.57660 104.51198 34838 ft 493 kts 172°
2026-05-06 11:42 4.50853 104.52051 34837 ft 493 kts 172°
2026-05-06 11:43 4.44046 104.52907 34837 ft 493 kts 172°
2026-05-06 11:43 4.37236 104.53765 34838 ft 493 kts 172°
2026-05-06 11:44 4.27036 104.55052 34836 ft 492 kts 172°
2026-05-06 11:44 4.20234 104.55905 34834 ft 492 kts 173°
2026-05-06 11:45 4.13469 104.56600 34829 ft 492 kts 174°
2026-05-06 11:45 4.06652 104.57230 34833 ft 492 kts 174°
2026-05-06 11:46 3.99836 104.57882 34828 ft 492 kts 174°
2026-05-06 11:46 3.93023 104.58550 34829 ft 492 kts 174°
2026-05-06 11:47 3.86208 104.59220 34833 ft 492 kts 174°
2026-05-06 11:47 3.79397 104.59888 34837 ft 492 kts 174°
2026-05-06 11:48 3.72583 104.60556 34836 ft 492 kts 174°
2026-05-06 11:48 3.65758 104.61226 34827 ft 492 kts 174°
2026-05-06 11:49 3.60050 104.61787 34830 ft 492 kts 174°
2026-05-06 11:49 3.53227 104.62456 34832 ft 492 kts 174°
2026-05-06 11:50 3.46408 104.63126 34833 ft 492 kts 174°
2026-05-06 11:50 3.39587 104.63795 34828 ft 492 kts 174°
2026-05-06 11:51 3.32765 104.64465 34836 ft 492 kts 174°
2026-05-06 11:51 3.25940 104.65134 34837 ft 493 kts 173°
2026-05-06 11:52 3.19114 104.65804 34735 ft 494 kts 173°
2026-05-06 11:52 3.15698 104.66139 33846 ft 504 kts 174°
2026-05-06 11:52 3.12205 104.66480 32893 ft 504 kts 174°
2026-05-06 11:53 3.08726 104.66747 32078 ft 499 kts 180°
2026-05-06 11:53 3.05314 104.66255 31446 ft 495 kts 196°
2026-05-06 11:53 3.02171 104.64897 30859 ft 492 kts 209°
2026-05-06 11:53 2.99417 104.62887 30253 ft 489 kts 223°
2026-05-06 11:54 2.97120 104.60414 29647 ft 483 kts 227°
2026-05-06 11:54 2.94885 104.57927 28977 ft 479 kts 227°
2026-05-06 11:54 2.92656 104.55465 28363 ft 475 kts 226°
2026-05-06 11:54 2.90432 104.53040 27769 ft 470 kts 226°
2026-05-06 11:55 2.88219 104.50649 27188 ft 466 kts 226°
2026-05-06 11:55 2.86011 104.48281 26618 ft 463 kts 226°
2026-05-06 11:55 2.83822 104.45942 26044 ft 459 kts 226°
2026-05-06 11:55 2.81641 104.43614 25497 ft 456 kts 226°
2026-05-06 11:56 2.79474 104.41301 24912 ft 454 kts 226°
2026-05-06 11:56 2.77344 104.39027 24358 ft 452 kts 226°
2026-05-06 11:56 2.75198 104.36737 23801 ft 450 kts 226°
2026-05-06 11:56 2.73061 104.34454 23198 ft 449 kts 226°
2026-05-06 11:57 2.70930 104.32177 22580 ft 446 kts 226°
2026-05-06 11:57 2.68818 104.29920 22014 ft 442 kts 226°
2026-05-06 11:57 2.66723 104.27681 21463 ft 439 kts 226°
2026-05-06 11:57 2.64645 104.25462 20926 ft 435 kts 226°
2026-05-06 11:58 2.62584 104.23259 20365 ft 432 kts 226°
2026-05-06 11:58 2.60536 104.21072 19900 ft 428 kts 226°
2026-05-06 11:58 2.58533 104.18932 19728 ft 415 kts 226°
2026-05-06 11:58 2.56587 104.16853 19543 ft 404 kts 226°
2026-05-06 11:59 2.54692 104.14828 19372 ft 393 kts 226°
2026-05-06 11:59 2.52844 104.12860 19204 ft 381 kts 224°
2026-05-06 11:59 2.50796 104.11305 19035 ft 364 kts 204°
2026-05-06 11:59 2.48424 104.10524 18690 ft 357 kts 186°
2026-05-06 12:00 2.46008 104.10393 18322 ft 342 kts 178°
2026-05-06 12:00 2.43631 104.10402 17923 ft 341 kts 178°
2026-05-06 12:00 2.41252 104.10428 17503 ft 340 kts 178°
2026-05-06 12:00 2.38892 104.10454 17108 ft 339 kts 178°
2026-05-06 12:01 2.36538 104.10472 16723 ft 337 kts 178°
2026-05-06 12:01 2.34199 104.10485 16337 ft 336 kts 178°
2026-05-06 12:01 2.31864 104.10492 15965 ft 335 kts 178°
2026-05-06 12:01 2.29534 104.10495 15581 ft 334 kts 178°
2026-05-06 12:02 2.27227 104.10496 15185 ft 326 kts 178°
2026-05-06 12:02 2.24982 104.10498 14825 ft 321 kts 178°
2026-05-06 12:02 2.22750 104.10499 14458 ft 321 kts 178°
2026-05-06 12:02 2.20515 104.10500 14092 ft 321 kts 179°
2026-05-06 12:03 2.18328 104.10500 13724 ft 317 kts 179°
2026-05-06 12:03 2.16122 104.10500 13329 ft 317 kts 179°
2026-05-06 12:03 2.13921 104.10500 12940 ft 313 kts 179°
2026-05-06 12:03 2.11756 104.10500 12576 ft 310 kts 179°
2026-05-06 12:04 2.09575 104.10500 12251 ft 308 kts 179°
2026-05-06 12:04 2.07453 104.10500 12011 ft 303 kts 179°
2026-05-06 12:04 2.05411 104.10499 11857 ft 289 kts 179°
2026-05-06 12:04 2.03468 104.10499 11735 ft 270 kts 179°
2026-05-06 12:05 2.01600 104.10499 11642 ft 260 kts 179°
2026-05-06 12:05 1.99847 104.10498 11522 ft 253 kts 179°
2026-05-06 12:05 1.98055 104.10501 11337 ft 264 kts 179°
2026-05-06 12:05 1.96202 104.10509 11040 ft 267 kts 179°
2026-05-06 12:06 1.94344 104.10518 10733 ft 267 kts 179°
2026-05-06 12:06 1.92489 104.10527 10415 ft 267 kts 179°
2026-05-06 12:06 1.90632 104.10536 10101 ft 267 kts 179°
2026-05-06 12:06 1.88770 104.10545 9771 ft 268 kts 179°
2026-05-06 12:07 1.86902 104.10553 9420 ft 269 kts 179°
2026-05-06 12:07 1.85033 104.10561 9086 ft 268 kts 179°
2026-05-06 12:07 1.83170 104.10570 8773 ft 266 kts 179°
2026-05-06 12:07 1.81333 104.10578 8442 ft 264 kts 179°
2026-05-06 12:08 1.79498 104.10586 8098 ft 263 kts 179°
2026-05-06 12:08 1.77674 104.10595 7784 ft 261 kts 179°
2026-05-06 12:08 1.75864 104.10603 7466 ft 259 kts 179°
2026-05-06 12:08 1.74064 104.10611 7152 ft 258 kts 179°
2026-05-06 12:09 1.72275 104.10619 6836 ft 256 kts 180°
2026-05-06 12:09 1.70497 104.10627 6524 ft 255 kts 180°
2026-05-06 12:09 1.68738 104.10635 6244 ft 249 kts 180°
2026-05-06 12:09 1.67027 104.10642 5992 ft 241 kts 180°
2026-05-06 12:10 1.65377 104.10650 5693 ft 234 kts 180°
2026-05-06 12:10 1.63769 104.10657 5414 ft 228 kts 180°
2026-05-06 12:10 1.62223 104.10546 5072 ft 220 kts 198°
2026-05-06 12:10 1.60891 104.09865 4816 ft 211 kts 210°
2026-05-06 12:11 1.59615 104.09159 4532 ft 206 kts 208°
2026-05-06 12:11 1.58359 104.08488 4264 ft 204 kts 208°
2026-05-06 12:11 1.57105 104.07828 4000 ft 203 kts 207°
2026-05-06 12:11 1.55854 104.07179 3741 ft 203 kts 207°
2026-05-06 12:12 1.54601 104.06534 3484 ft 203 kts 207°
2026-05-06 12:12 1.53346 104.05893 3239 ft 202 kts 206°
2026-05-06 12:12 1.52093 104.05254 2981 ft 202 kts 206°
2026-05-06 12:12 1.50859 104.04616 2733 ft 197 kts 207°
2026-05-06 12:13 1.49631 104.04006 2456 ft 194 kts 204°
2026-05-06 12:13 1.48434 104.03481 2206 ft 182 kts 202°
2026-05-06 12:13 1.47301 104.03000 2000 ft 173 kts 202°
2026-05-06 12:13 1.46188 104.02528 1774 ft 176 kts 202°
2026-05-06 12:14 1.45058 104.02049 1555 ft 176 kts 202°
2026-05-06 12:14 1.43950 104.01579 1307 ft 170 kts 202°
2026-05-06 12:14 1.42902 104.01134 1085 ft 157 kts 202°
2026-05-06 12:14 1.41924 104.00719 875 ft 149 kts 202°
2026-05-06 12:15 1.40975 104.00327 724 ft 147 kts 203°
2026-05-06 12:15 1.40028 103.99922 635 ft 150 kts 203°
2026-05-06 12:15 1.39061 103.99507 400 ft 150 kts 203°
2026-05-06 12:15 1.38119 103.99108 177 ft 144 kts 202°
2026-05-06 12:16 1.37198 103.98724 43 ft 144 kts 202°
2026-05-06 12:16 1.36352 103.98365 34 ft 115 kts 203°
2026-05-06 12:16 1.35787 103.98124 34 ft 62 kts 202°
2026-05-06 12:16 1.35546 103.98025 37 ft 24 kts 202°
2026-05-06 12:17 1.35362 103.97949 36 ft 38 kts 202°
2026-05-06 12:17 1.35145 103.97859 36 ft 19 kts 203°
2026-05-06 12:17 1.35062 103.97825 35 ft 10 kts 196°
2026-05-06 12:17 1.35006 103.97847 35 ft 9 kts 126°
2026-05-06 12:18 1.34974 103.97911 33 ft 12 kts 114°
2026-05-06 12:18 1.34942 103.97986 31 ft 11 kts 112°
2026-05-06 12:18 1.34917 103.98046 30 ft 8 kts 113°
2026-05-06 12:18 1.34905 103.98081 30 ft 6 kts 97°
2026-05-06 12:19 1.34914 103.98121 30 ft 4 kts 71°
2026-05-06 12:19 1.34923 103.98149 30 ft 3 kts 75°
2026-05-06 12:19 1.34926 103.98167 30 ft 1 kts 81°
2026-05-06 12:19 1.34929 103.98181 30 ft 0 kts 73°